Weather History for Cleveland Burke, OH

Change the Weather History Date:

Tuesday, April 9, 2013

  Actual Average Record
Temperature  
Mean Temperature 48 °F -  
Max Temperature 62 °F 53 °F 73 °F (2001)
Min Temperature 42 °F 38 °F 28 °F (1997)
Degree Days  
Heating Degree Days 16    
Moisture  
Dew Point 41 °F    
Average Humidity 86    
Maximum Humidity 97    
Minimum Humidity 67    
Precipitation  
Precipitation 0.00 in - - ()
Sea Level Pressure  
Sea Level Pressure 30.00 in    
Wind  
Wind Speed 7 mph (NNE)    
Max Wind Speed 13 mph    
Max Gust Speed 23 mph    
Visibility 8 miles    
Events Thunderstorm    
Averages and records for this station are not official NWS values.
T = Trace of Precipitation, MM = Missing Value Source: NWS Daily Summary

Daily Weather History Graph

Daily Weather History Graph

Search for Another Location

Airport:

Trip Planner

Search our weather history database for the weather conditions in past years. The results will help you decide how hot, cold, wet, or windy it might be!

Date:

Astronomy

Apr. 09, 2013 Rise Set
Actual Time 6:56 AM EDT 8:00 PM EDT
Civil Twilight 6:27 AM EDT 8:29 PM EDT
Nautical Twilight 5:53 AM EDT 9:03 PM EDT
Astronomical Twilight 5:18 AM EDT 9:38 PM EDT
Moon 6:18 AM EDT (4/9) 7:35 PM EDT (4/9)
Length of Visible Light 14h 01m
Length of Day
13h 04m
Waning Crescent, 1% of the Moon is Illuminated
Apr 9
Waning Crescent
Apr 10
New
Apr 18
First Quarter
Apr 25
Full
May 2
Last Quarter

Hourly Weather History & Observations

Time (EDT) Temp. Windchill Dew Point Humidity Pressure Visibility Wind Dir Wind Speed Gust Speed Precip Events Conditions
12:53 AM 53.1 °F - 45.0 °F 74% 29.96 in 10.0 mi WSW 11.5 mph - N/A Thunderstorm Thunderstorm
1:53 AM 46.9 °F - 42.1 °F 83% 30.00 in 10.0 mi West 10.4 mph - N/A   Overcast
2:53 AM 44.1 °F 42.5 °F 39.9 °F 85% 30.03 in 10.0 mi WNW 3.5 mph - N/A   Mostly Cloudy
3:53 AM 42.1 °F 40.2 °F 39.0 °F 89% 30.04 in 10.0 mi SW 3.5 mph - N/A   Scattered Clouds
4:53 AM 42.1 °F - 39.9 °F 92% 30.06 in 9.0 mi Calm Calm - N/A   Mostly Cloudy
5:53 AM 44.1 °F - 41.0 °F 89% 30.08 in 7.0 mi Calm Calm - N/A   Overcast
6:19 AM 42.8 °F - 41.0 °F 93% 30.08 in 6.0 mi Calm Calm - N/A   Mostly Cloudy
6:53 AM 42.1 °F 40.2 °F 39.9 °F 92% 30.10 in 5.0 mi North 3.5 mph - N/A   Scattered Clouds
7:53 AM 43.0 °F 41.3 °F 42.1 °F 97% 30.11 in 4.0 mi NE 3.5 mph - N/A   Scattered Clouds
8:02 AM 44.6 °F 40.7 °F 42.8 °F 93% 30.10 in 4.0 mi NE 6.9 mph - N/A   Mostly Cloudy
8:17 AM 44.6 °F 42.2 °F 42.8 °F 93% 30.10 in 4.0 mi NE 4.6 mph - N/A   Scattered Clouds
8:53 AM 44.1 °F 39.5 °F 41.0 °F 89% 30.09 in 3.0 mi NE 8.1 mph - N/A   Partly Cloudy
9:53 AM 44.1 °F 39.5 °F 41.0 °F 89% 30.08 in 4.0 mi NE 8.1 mph - N/A   Clear
10:53 AM 45.0 °F 40.6 °F 41.0 °F 86% 30.07 in 4.0 mi NNE 8.1 mph - N/A   Clear
11:53 AM 45.0 °F 39.7 °F 41.0 °F 86% 30.06 in - NE 10.4 mph - N/A   Clear
12:53 PM 45.0 °F 38.9 °F 41.0 °F 86% 30.03 in 6.0 mi NE 12.7 mph - N/A   Scattered Clouds
1:53 PM 45.0 °F 38.9 °F 41.0 °F 86% 30.00 in 6.0 mi NE 12.7 mph - N/A   Mostly Cloudy
2:53 PM 46.0 °F 40.2 °F 41.0 °F 83% 29.97 in 10.0 mi NE 12.7 mph - N/A   Partly Cloudy
3:53 PM 44.1 °F 37.7 °F 39.9 °F 85% 29.92 in 10.0 mi NE 12.7 mph - N/A   Mostly Cloudy
4:53 PM 50.0 °F - 43.0 °F 77% 29.87 in 10.0 mi NE 5.8 mph - N/A   Mostly Cloudy
5:53 PM 52.0 °F - 45.0 °F 77% 29.85 in 10.0 mi NNW 4.6 mph - N/A   Mostly Cloudy
6:53 PM 48.0 °F - 43.0 °F 83% 29.84 in 10.0 mi Calm Calm - N/A   Overcast
7:53 PM 55.9 °F - 45.0 °F 67% 29.84 in 10.0 mi NNW 11.5 mph 23.0 mph N/A   Overcast
8:53 PM 46.0 °F 43.1 °F 41.0 °F 83% 29.88 in 10.0 mi North 5.8 mph - N/A   Overcast
9:53 PM 42.1 °F 37.7 °F 39.0 °F 89% 29.92 in 10.0 mi NE 6.9 mph - N/A   Overcast
10:53 PM 42.1 °F 40.2 °F 39.0 °F 89% 29.93 in 9.0 mi West 3.5 mph - N/A   Mostly Cloudy
11:53 PM 43.0 °F - 39.0 °F 86% 29.91 in 10.0 mi Calm Calm - N/A   Overcast